DW5247 Lemo FI current weather conditions

sailwx.info

Wind from 293 at 3 knots gusting 6

Air temperature 9.4° C
Dewpoint 8.1° C

Last reported at 2017-Sep-25 18:07 UTC.
Time now 2017-Sep-25 18:42 UTC

Location: N 62°41' E 029°49'.
View on Google Maps.

See reports from other nearby stations

  
Tides and Currents Weather Stations Pressure Air Temp Water Temp Dewpoint Dewpoint Depression Visibility Wind Speed Wind Dir Waves Ship Positions
date/time (UTC)wind fromknots sea level pressurealtimeterstation pressurevisibilityair tempwater tempwave heightnotes
2017-Sep-25 18:07 293 3 gusting 6 9.4
2017-Sep-25 18:02 248 3 gusting 5 9.4
2017-Sep-25 17:57 248 3 gusting 5 9.4
2017-Sep-25 17:52 203 3 gusting 4 10.0
2017-Sep-25 17:47 225 2 gusting 4 10.0
2017-Sep-25 17:42 248 2 gusting 4 10.0
2017-Sep-25 17:37 113 2 gusting 6 10.0
2017-Sep-25 17:32 158 3 gusting 6 10.0
2017-Sep-25 17:27 225 3 gusting 6 10.0
2017-Sep-25 17:22 203 3 gusting 5 10.0
2017-Sep-25 17:17 225 1 gusting 4 10.0
2017-Sep-25 17:12 248 1 gusting 5 10.0
2017-Sep-25 17:07 248 3 gusting 5 10.0
2017-Sep-25 17:02 248 3 gusting 6 10.0
2017-Sep-25 16:57 248 3 gusting 6 10.0
2017-Sep-25 16:52 225 3 gusting 6 10.0
2017-Sep-25 16:47 248 3 gusting 6 10.6
2017-Sep-25 16:42 270 3 gusting 5 10.6
2017-Sep-25 16:37 248 3 gusting 5 10.6
2017-Sep-25 16:32 338 2 gusting 3 10.6
2017-Sep-25 16:27 248 1 gusting 4 10.6
2017-Sep-25 16:17 225 2 gusting 5 10.6
2017-Sep-25 16:12 203 2 gusting 5 10.6
2017-Sep-25 16:07 225 2 gusting 3 10.6
2017-Sep-25 16:02 248 2 gusting 3 11.1
2017-Sep-25 15:57 248 1 gusting 3 11.1
2017-Sep-25 15:52 270 1 gusting 3 11.1
2017-Sep-25 15:47 180 1 gusting 3 11.7
2017-Sep-25 15:42 248 0 gusting 2 11.7
2017-Sep-25 15:37 225 0 gusting 2 11.7
2017-Sep-25 15:32 180 0 gusting 4 11.7
2017-Sep-25 15:27 248 1 gusting 4 12.2
2017-Sep-25 15:22 225 1 gusting 4 12.2
2017-Sep-25 15:17 203 2 gusting 4 12.2
2017-Sep-25 15:12 225 1 gusting 4 12.8
2017-Sep-25 15:07 248 1 gusting 2 12.8
2017-Sep-25 15:02 225 1 gusting 2 12.8
2017-Sep-25 14:57 225 1 gusting 3 12.8
2017-Sep-25 14:52 270 2 gusting 4 12.8
2017-Sep-25 14:47 248 2 gusting 5 12.8
2017-Sep-25 14:42 248 2 gusting 5 13.3
2017-Sep-25 14:37 180 2 gusting 5 13.3
2017-Sep-25 14:32 203 2 gusting 4 13.3
2017-Sep-25 14:27 248 2 gusting 4 13.3
2017-Sep-25 14:22 248 2 gusting 3 13.3
2017-Sep-25 14:17 180 1 gusting 3 13.3
2017-Sep-25 14:12 225 1 gusting 3 13.3
2017-Sep-25 14:07 225 1 gusting 3 13.3
2017-Sep-25 14:02 248 2 gusting 5 13.3
2017-Sep-25 13:57 248 3 gusting 5 13.3
2017-Sep-25 13:52 248 3 gusting 5 13.3
2017-Sep-25 13:47 225 3 gusting 5 13.3
2017-Sep-25 13:42 225 3 gusting 5 13.9
2017-Sep-25 13:37 248 3 gusting 5 13.9
2017-Sep-25 13:32 180 3 gusting 5 13.9
2017-Sep-25 13:27 293 3 gusting 5 13.9
2017-Sep-25 13:22 203 3 gusting 5 13.9
2017-Sep-25 13:17 248 2 gusting 3 13.9
2017-Sep-25 13:12 203 2 gusting 3 13.9
2017-Sep-25 13:07 203 2 gusting 2 13.9
2017-Sep-25 13:02 248 1 gusting 3 13.9
2017-Sep-25 12:57 248 2 gusting 3 13.9
2017-Sep-25 12:52 315 2 gusting 4 13.9
2017-Sep-25 12:47 248 3 gusting 4 13.9
2017-Sep-25 12:42 248 3 gusting 5 13.9
2017-Sep-25 12:37 248 2 gusting 5 13.9
2017-Sep-25 12:32 225 2 gusting 5 13.9
2017-Sep-25 12:27 248 2 gusting 5 13.9
2017-Sep-25 12:22 203 2 gusting 3 13.9
2017-Sep-25 12:17 248 2 gusting 4 13.3
2017-Sep-25 12:12 248 2 gusting 4 13.3
2017-Sep-25 12:07 225 2 gusting 4 13.3
2017-Sep-25 12:02 248 1 gusting 5 13.3
2017-Sep-25 11:57 180 2 gusting 5 13.3
2017-Sep-25 11:52 225 2 gusting 5 13.3
2017-Sep-25 11:47 293 2 gusting 3 13.3
2017-Sep-25 11:42 248 1 gusting 3 12.8
2017-Sep-25 11:37 248 1 gusting 4 12.8
2017-Sep-25 11:32 225 1 gusting 4 12.8
2017-Sep-25 11:27 270 2 gusting 4 12.8
2017-Sep-25 11:22 180 2 gusting 6 12.8
2017-Sep-25 11:17 315 2 gusting 6 12.2
2017-Sep-25 11:12 225 3 gusting 4 12.2
2017-Sep-25 11:07 248 2 gusting 4 12.2
2017-Sep-25 11:02 203 2 gusting 4 11.7
2017-Sep-25 10:57 315 2 gusting 4 11.7
2017-Sep-25 10:52 248 2 gusting 4 11.7
2017-Sep-25 10:47 248 2 gusting 4 11.7
2017-Sep-25 10:42 203 2 gusting 5 11.1
2017-Sep-25 10:37 270 3 gusting 5 11.1
2017-Sep-25 10:32 248 3 gusting 5 11.1
2017-Sep-25 10:27 225 3 gusting 5 11.1
2017-Sep-25 10:22 225 2 gusting 5 11.1
2017-Sep-25 10:17 11.1
2017-Sep-25 10:12 180 0 gusting 4 10.6
2017-Sep-25 10:07 135 0 gusting 2 10.6
2017-Sep-25 10:02 248 0 gusting 3 10.6
2017-Sep-25 09:57 270 1 gusting 3 10.6
2017-Sep-25 09:52 270 1 gusting 3 10.6
2017-Sep-25 09:47 225 2 gusting 3 10.6
2017-Sep-25 09:42 248 2 gusting 3 10.6
2017-Sep-25 09:37 225 2 gusting 2 10.0
2017-Sep-25 09:32 315 1 gusting 2 10.0
2017-Sep-25 09:27 248 0 gusting 2 10.0
2017-Sep-25 09:22 158 1 gusting 2 10.0
2017-Sep-25 09:17 135 1 gusting 2 10.0
2017-Sep-25 09:12 180 1 gusting 3 9.4
2017-Sep-25 09:07 180 1 gusting 3 9.4
2017-Sep-25 09:02 225 1 gusting 3 9.4
2017-Sep-25 08:57 248 0 gusting 3 9.4
2017-Sep-25 08:52 090 1 gusting 3 9.4
2017-Sep-25 08:47 225 2 gusting 3 9.4
2017-Sep-25 08:42 248 2 gusting 4 8.9
2017-Sep-25 08:37 203 2 gusting 4 8.9
2017-Sep-25 08:32 225 1 gusting 2 8.9
2017-Sep-25 08:27 248 1 gusting 2 8.9
2017-Sep-25 08:22 293 0 gusting 3 8.9
2017-Sep-25 08:17 180 1 gusting 3 8.3
2017-Sep-25 08:12 270 1 gusting 2 8.3
2017-Sep-25 08:07 203 1 gusting 2 8.3
2017-Sep-25 08:02 203 0 gusting 2 8.3
2017-Sep-25 07:57 248 0 gusting 2 8.3
2017-Sep-25 07:52 135 0 gusting 2 8.3
2017-Sep-25 07:47 180 1 gusting 2 7.8
2017-Sep-25 07:42 225 0 gusting 2 7.8
2017-Sep-25 07:37 180 0 gusting 3 7.8
2017-Sep-25 07:32 248 1 gusting 3 7.8
2017-Sep-25 07:27 270 1 gusting 3 7.8
2017-Sep-25 07:22 225 1 gusting 3 7.8
2017-Sep-25 07:17 248 1 gusting 3 7.8
2017-Sep-25 07:12 248 1 gusting 4 7.2
2017-Sep-25 07:07 248 2 gusting 4 7.2
2017-Sep-25 07:02 248 2 gusting 4 7.2
2017-Sep-25 06:57 248 1 gusting 1 7.2
2017-Sep-25 06:52 270 0 gusting 1 6.7
2017-Sep-25 06:47 248 0 gusting 3 6.7
2017-Sep-25 06:42 248 1 gusting 3 6.7
2017-Sep-25 06:37 338 1 gusting 3 6.7
2017-Sep-25 06:32 203 1 gusting 3 6.7
2017-Sep-25 06:27 270 1 gusting 3 6.7
2017-Sep-25 06:22 180 1 gusting 3 6.7
2017-Sep-25 06:17 248 1 gusting 3 6.1
2017-Sep-25 06:12 248 1 gusting 3 6.1
2017-Sep-25 06:07 248 1 gusting 3 6.1
2017-Sep-25 06:02 248 1 gusting 3 6.1
2017-Sep-25 05:57 225 1 gusting 3 5.6
2017-Sep-25 05:52 248 1 gusting 3 5.6
2017-Sep-25 05:47 248 1 gusting 3 5.6
2017-Sep-25 05:42 203 1 gusting 3 5.0
2017-Sep-25 05:37 225 1 gusting 2 5.0
2017-Sep-25 05:32 248 0 gusting 2 5.0
2017-Sep-25 05:27 225 0 gusting 2 4.4
2017-Sep-25 05:22 248 4.4
2017-Sep-25 05:17 293 4.4
2017-Sep-25 05:12 293 3.9
2017-Sep-25 05:07 248 3.9
2017-Sep-25 05:02 293 3.9
2017-Sep-25 04:57 270 3.9
2017-Sep-25 04:52 270 3.9
2017-Sep-25 04:47 270 3.9
2017-Sep-25 04:42 270 3.9
2017-Sep-25 04:37 248 3.9
2017-Sep-25 04:32 270 3.9
2017-Sep-25 04:27 203 3.9
2017-Sep-25 04:22 180 3.9
2017-Sep-25 04:17 225 3.9
2017-Sep-25 04:12 045 3.9
2017-Sep-25 04:07 045 3.9
2017-Sep-25 04:02 045 3.9
2017-Sep-25 03:57 045 3.9
2017-Sep-25 03:52 045 3.9
2017-Sep-25 03:47 158 3.9
2017-Sep-25 03:42 225 3.9
2017-Sep-25 03:37 248 3.9
2017-Sep-25 03:32 315 3.9
2017-Sep-25 03:27 315 3.9
2017-Sep-25 03:22 315 3.9
2017-Sep-25 03:17 315 3.9
2017-Sep-25 03:12 293 3.9
2017-Sep-25 03:07 293 3.9
2017-Sep-25 03:02 293 3.9
2017-Sep-25 02:57 293 3.9
2017-Sep-25 02:52 248 3.9
2017-Sep-25 02:47 248 3.9
2017-Sep-25 02:42 248 3.9
2017-Sep-25 02:37 248 3.9
2017-Sep-25 02:32 225 3.9
2017-Sep-25 02:27 248 3.9
2017-Sep-25 02:22 090 3.9
2017-Sep-25 02:17 090 3.9
2017-Sep-25 02:12 090 3.9
2017-Sep-25 02:07 113 3.9
2017-Sep-25 02:02 315 3.9
2017-Sep-25 01:57 270 4.4
2017-Sep-25 01:52 270 4.4
2017-Sep-25 01:47 225 4.4
2017-Sep-25 01:42 225 4.4
2017-Sep-25 01:37 248 4.4
2017-Sep-25 01:32 180 4.4
2017-Sep-25 01:27 203 4.4
2017-Sep-25 01:22 248 4.4
2017-Sep-25 01:17 248 4.4
2017-Sep-25 01:12 248 4.4
2017-Sep-25 01:07 248 4.4
2017-Sep-25 01:02 248 4.4
2017-Sep-25 00:57 180 4.4
2017-Sep-25 00:52 180 4.4
2017-Sep-25 00:47 180 4.4
2017-Sep-25 00:42 203 4.4
2017-Sep-25 00:37 270 4.4
2017-Sep-25 00:32 270 4.4
2017-Sep-25 00:27 270 4.4
2017-Sep-25 00:22 315 5.0
2017-Sep-25 00:17 315 5.0
2017-Sep-25 00:12 248 5.0
2017-Sep-25 00:07 203 5.0
2017-Sep-25 00:02 203 5.0
2017-Sep-24 23:57 270 5.0
2017-Sep-24 23:52 270 5.0
2017-Sep-24 23:47 315 5.0
2017-Sep-24 23:42 315 5.0
2017-Sep-24 23:37 270 5.0
2017-Sep-24 23:32 270 5.0
2017-Sep-24 23:27 270 5.0
2017-Sep-24 23:22 270 5.6
2017-Sep-24 23:17 225 5.6
2017-Sep-24 23:12 338 5.6
2017-Sep-24 23:07 315 5.6
2017-Sep-24 23:02 135 5.6
2017-Sep-24 22:57 090 5.6
2017-Sep-24 22:52 068 5.6
2017-Sep-24 22:47 113 5.6
2017-Sep-24 22:42 113 5.6
2017-Sep-24 22:37 090 5.6
2017-Sep-24 22:32 045 5.6
2017-Sep-24 22:27 023 5.6
2017-Sep-24 22:22 023 5.6
2017-Sep-24 22:17 023 5.6
2017-Sep-24 22:12 023 5.6
2017-Sep-24 22:07 315 5.6
2017-Sep-24 22:02 270 6.1
2017-Sep-24 21:57 270 6.1
2017-Sep-24 21:52 270 6.1
2017-Sep-24 21:47 248 6.1
2017-Sep-24 21:42 315 6.1
2017-Sep-24 21:37 315 6.1
2017-Sep-24 21:32 315 6.1
2017-Sep-24 21:27 270 6.1
2017-Sep-24 21:22 248 6.1
2017-Sep-24 21:17 270 6.1
2017-Sep-24 21:12 270 6.1
2017-Sep-24 21:07 270 6.1
2017-Sep-24 20:57 270 6.7
2017-Sep-24 20:52 270 6.7
2017-Sep-24 20:47 270 6.7
2017-Sep-24 20:42 270 6.7
2017-Sep-24 20:37 315 6.7
2017-Sep-24 20:32 315 6.7
2017-Sep-24 20:27 248 6.7
2017-Sep-24 20:22 248 6.7
2017-Sep-24 20:17 248 6.7
2017-Sep-24 20:12 248 6.7
2017-Sep-24 20:07 248 7.2
2017-Sep-24 20:02 248 7.2
2017-Sep-24 19:57 248 7.2
2017-Sep-24 19:52 248 7.2
2017-Sep-24 19:47 248 7.2
2017-Sep-24 19:42 248 7.8
2017-Sep-24 19:37 248 7.2
2017-Sep-24 19:32 180 7.8
2017-Sep-24 19:27 180 7.8
2017-Sep-24 19:22 180 7.8
2017-Sep-24 19:17 315 7.8
2017-Sep-24 19:12 315 7.8
2017-Sep-24 19:07 180 7.8
2017-Sep-24 19:02 180 7.8
2017-Sep-24 18:57 068 8.3
2017-Sep-24 18:52 158 8.3
2017-Sep-24 18:47 158 8.3
2017-Sep-24 18:42 135 8.3
2017-Sep-24 18:37 158 8.3
2017-Sep-24 18:32 113 8.3
2017-Sep-24 18:27 113 8.9
2017-Sep-24 18:22 135 8.9
2017-Sep-24 18:17 113 8.9
2017-Sep-24 18:12 068 8.9
2017-Sep-24 18:07 113 8.9
2017-Sep-24 18:02 090 9.4
2017-Sep-24 17:57 135 9.4
2017-Sep-24 17:52 113 9.4
2017-Sep-24 17:47 045 9.4
2017-Sep-24 17:42 203 9.4
2017-Sep-24 17:37 203 9.4
2017-Sep-24 17:32 203 10.0
2017-Sep-24 17:27 203 10.0
2017-Sep-24 17:22 203 10.0
2017-Sep-24 17:17 023 10.0
2017-Sep-24 17:12 045 10.6
2017-Sep-24 17:07 158 10.6
2017-Sep-24 17:02 158 10.6
2017-Sep-24 16:57 135 11.1
2017-Sep-24 16:52 113 11.1
2017-Sep-24 16:47 113 11.1
2017-Sep-24 16:42 045 11.7
2017-Sep-24 16:37 135 11.7
2017-Sep-24 16:32 113 11.7
2017-Sep-24 16:27 113 11.7
2017-Sep-24 16:22 135 12.2
2017-Sep-24 16:17 135 12.2
2017-Sep-24 16:12 113 12.2
2017-Sep-24 16:07 113 12.8
2017-Sep-24 16:02 135 12.8
2017-Sep-24 15:57 135 12.8
2017-Sep-24 15:52 113 12.8
2017-Sep-24 15:47 158 13.3
2017-Sep-24 15:42 113 13.3
2017-Sep-24 15:37 113 13.3
2017-Sep-24 15:32 113 13.3
2017-Sep-24 15:27 113 13.3
2017-Sep-24 15:22 113 13.9
2017-Sep-24 15:17 113 13.9
2017-Sep-24 15:12 068 13.9
2017-Sep-24 15:07 113 14.4
2017-Sep-24 15:02 135 14.4
2017-Sep-24 14:57 068 14.4
2017-Sep-24 14:52 068 14.4
2017-Sep-24 14:47 068 14.4
2017-Sep-24 14:42 068 15.0
2017-Sep-24 14:37 068 15.0
2017-Sep-24 14:32 023 15.0
2017-Sep-24 14:27 090 0 gusting 1 15.0
2017-Sep-24 14:22 023 0 gusting 1 15.0
2017-Sep-24 14:17 023 0 gusting 1 15.0
2017-Sep-24 14:12 045 15.0
2017-Sep-24 14:07 068 0 gusting 2 15.0
2017-Sep-24 14:02 023 1 gusting 2 15.6
2017-Sep-24 13:57 045 1 gusting 2 15.6
2017-Sep-24 13:52 338 1 gusting 2 15.6
2017-Sep-24 13:47 023 1 gusting 2 15.6
2017-Sep-24 13:42 023 1 gusting 2 15.6
2017-Sep-24 13:37 15.6
2017-Sep-24 13:32 045 0 gusting 2 15.6
2017-Sep-24 13:27 15.6
2017-Sep-24 13:22 15.6
2017-Sep-24 13:17 023 1 gusting 3 15.6
2017-Sep-24 13:12 315 2 gusting 3 15.6
2017-Sep-24 13:07 023 2 gusting 3 15.6
2017-Sep-24 13:02 023 1 gusting 4 15.6
2017-Sep-24 12:57 023 1 gusting 4 15.6
2017-Sep-24 12:52 338 1 gusting 3 15.6
2017-Sep-24 12:47 023 1 gusting 3 15.6
2017-Sep-24 12:42 315 0 gusting 3 15.6
2017-Sep-24 12:37 338 1 gusting 3 15.6
2017-Sep-24 12:32 023 2 gusting 3 15.6
2017-Sep-24 12:27 15.6
2017-Sep-24 12:22 023 1 gusting 3 15.6
2017-Sep-24 12:17 315 1 gusting 3 16.1
2017-Sep-24 12:12 023 1 gusting 3 15.6
2017-Sep-24 12:07 338 2 gusting 5 15.6
2017-Sep-24 12:02 15.6
2017-Sep-24 11:57 315 2 gusting 5 15.6
2017-Sep-24 11:52 158 1 gusting 4 16.1
2017-Sep-24 11:47 315 2 gusting 6 15.6
2017-Sep-24 11:42 293 2 gusting 6 16.1
2017-Sep-24 11:37 023 2 gusting 4 16.1
2017-Sep-24 11:32 293 2 gusting 5 15.6
2017-Sep-24 11:27 270 2 gusting 5 15.6
2017-Sep-24 11:22 15.6
2017-Sep-24 11:17 023 2 gusting 4 15.6
2017-Sep-24 11:12 15.6
2017-Sep-24 11:07 15.6
2017-Sep-24 11:02 338 2 gusting 3 15.6
2017-Sep-24 10:57 15.6
2017-Sep-24 10:52 248 2 gusting 4 15.6
2017-Sep-24 10:47 15.6
2017-Sep-24 10:42 338 2 gusting 4 15.6
2017-Sep-24 10:37 068 1 gusting 4 15.6
2017-Sep-24 10:32 225 2 gusting 4 15.6
2017-Sep-24 10:27 15.6
2017-Sep-24 10:22 023 1 gusting 3 15.0
2017-Sep-24 10:17 180 2 gusting 3 15.0
2017-Sep-24 10:12 315 2 gusting 3 15.0
2017-Sep-24 10:07 045 2 gusting 3 15.0
2017-Sep-24 10:02 023 1 gusting 3 14.4
2017-Sep-24 09:57 315 1 gusting 3 14.4
2017-Sep-24 09:52 248 1 gusting 3 14.4
2017-Sep-24 09:47 293 1 gusting 3 14.4
2017-Sep-24 09:42 338 0 gusting 3 13.9
2017-Sep-24 09:37 023 1 gusting 3 13.9
2017-Sep-24 09:32 315 1 gusting 2 13.9
2017-Sep-24 09:27 338 1 gusting 2 13.3
2017-Sep-24 09:22 113 1 gusting 1 13.3
2017-Sep-24 09:17 045 1 gusting 2 13.3
2017-Sep-24 09:12 045 1 gusting 3 12.8
2017-Sep-24 09:07 045 1 gusting 3 12.8
2017-Sep-24 09:02 12.2
2017-Sep-24 08:57 293 1 gusting 3 12.2
2017-Sep-24 08:52 315 1 gusting 2 11.7
2017-Sep-24 08:47 293 0 gusting 3 11.7
2017-Sep-24 08:42 11.7
2017-Sep-24 08:37 315 1 gusting 3 11.7
2017-Sep-24 08:32 338 0 gusting 3 11.1
2017-Sep-24 08:27 11.1
2017-Sep-24 08:22 293 11.1
2017-Sep-24 08:17 338 0 gusting 2 11.1
2017-Sep-24 08:12 315 10.6
2017-Sep-24 08:07 068 10.6
2017-Sep-24 08:02 225 10.6
2017-Sep-24 07:57 225 0 gusting 3 10.6
2017-Sep-24 07:52 225 0 gusting 3 10.6
2017-Sep-24 07:47 225 0 gusting 3 10.0
2017-Sep-24 07:42 225 0 gusting 3 10.0
2017-Sep-24 07:37 225 1 gusting 3 9.4
2017-Sep-24 07:32 270 0 gusting 3 9.4
2017-Sep-24 07:27 225 1 gusting 3 9.4
2017-Sep-24 07:22 248 1 gusting 3 8.9
2017-Sep-24 07:17 315 1 gusting 3 8.9
2017-Sep-24 07:12 270 0 gusting 2 8.9
2017-Sep-24 07:07 225 0 gusting 2 8.9
2017-Sep-24 07:02 248 1 gusting 2 8.3
2017-Sep-24 06:57 248 1 gusting 2 8.3
2017-Sep-24 06:52 248 0 gusting 3 7.8
2017-Sep-24 06:47 248 0 gusting 3 7.8
2017-Sep-24 06:42 248 0 gusting 2 7.8
2017-Sep-24 06:37 293 0 gusting 2 7.2
2017-Sep-24 06:32 270 0 gusting 1 6.7
2017-Sep-24 06:27 248 0 gusting 1 6.7
2017-Sep-24 06:22 248 0 gusting 1 6.7
2017-Sep-24 06:17 293 0 gusting 1 6.1
2017-Sep-24 06:12 248 6.1
2017-Sep-24 06:07 293 5.6
2017-Sep-24 06:02 248 5.6
2017-Sep-24 05:57 270 5.0
2017-Sep-24 05:52 248 5.0
2017-Sep-24 05:47 270 5.0
2017-Sep-24 05:42 248 4.4
2017-Sep-24 05:37 248 4.4
2017-Sep-24 05:32 180 4.4
2017-Sep-24 05:27 248 4.4
2017-Sep-24 05:22 270 4.4
2017-Sep-24 05:17 270 3.9
2017-Sep-24 05:12 293 3.9
2017-Sep-24 05:07 270 3.9
2017-Sep-24 05:02 248 3.9
2017-Sep-24 04:57 270 3.9
2017-Sep-24 04:52 315 3.9
2017-Sep-24 04:47 315 3.9
2017-Sep-24 04:42 315 3.9
2017-Sep-24 04:37 315 3.9
2017-Sep-24 04:32 293 3.9
2017-Sep-24 04:27 270 3.3
2017-Sep-24 04:22 270 3.9
2017-Sep-24 04:17 270 3.9
2017-Sep-24 04:12 270 3.9
2017-Sep-24 04:07 293 3.9
2017-Sep-24 04:02 293 3.9
2017-Sep-24 03:57 293 3.9
2017-Sep-24 03:52 293 3.9
2017-Sep-24 03:47 315 3.9
2017-Sep-24 03:42 270 3.9
2017-Sep-24 03:37 270 3.9
2017-Sep-24 03:32 270 3.9
2017-Sep-24 03:27 248 3.9
2017-Sep-24 03:22 270 4.4
2017-Sep-24 03:17 270 4.4
2017-Sep-24 03:12 270 4.4
2017-Sep-24 03:07 270 4.4
2017-Sep-24 03:02 270 4.4
2017-Sep-24 02:57 270 4.4
2017-Sep-24 02:52 225 4.4
2017-Sep-24 02:47 270 4.4
2017-Sep-24 02:42 270 4.4
2017-Sep-24 02:37 270 4.4
2017-Sep-24 02:32 225 4.4
2017-Sep-24 02:27 270 4.4
2017-Sep-24 02:22 293 5.0
2017-Sep-24 02:17 293 5.0
2017-Sep-24 02:12 293 5.0
2017-Sep-24 02:07 293 5.0
2017-Sep-24 02:02 270 5.0
2017-Sep-24 01:57 180 5.0
2017-Sep-24 01:52 180 5.0
2017-Sep-24 01:47 180 5.0
2017-Sep-24 01:42 225 5.6
2017-Sep-24 01:37 225 5.6
2017-Sep-24 01:32 248 5.6
2017-Sep-24 01:27 315 5.6
2017-Sep-24 01:22 315 5.6
2017-Sep-24 01:17 315 5.6
2017-Sep-24 01:12 045 6.1
2017-Sep-24 01:07 248 6.1
2017-Sep-24 01:02 248 6.1
2017-Sep-24 00:57 270 6.1
2017-Sep-24 00:52 248 6.1
2017-Sep-24 00:47 248 6.1
2017-Sep-24 00:42 248 6.1
2017-Sep-24 00:37 225 6.1
2017-Sep-24 00:32 225 6.7
2017-Sep-24 00:27 248 6.7
2017-Sep-24 00:22 270 6.7
2017-Sep-24 00:17 248 6.7
2017-Sep-24 00:12 270 6.7
2017-Sep-24 00:07 180 6.7
2017-Sep-24 00:02 180 6.7
2017-Sep-23 23:57 203 6.7
2017-Sep-23 23:52 225 0 gusting 0 6.7
2017-Sep-23 23:47 248 6.7
2017-Sep-23 23:42 248 6.7
2017-Sep-23 23:37 248 6.7
2017-Sep-23 23:32 293 6.7
2017-Sep-23 23:27 248 6.7
2017-Sep-23 23:22 248 0 gusting 2 6.7
2017-Sep-23 23:17 270 0 gusting 2 6.7
2017-Sep-23 23:12 270 0 gusting 3 6.7
2017-Sep-23 23:07 248 0 gusting 3 6.7
2017-Sep-23 23:02 270 0 gusting 1 6.7
2017-Sep-23 22:57 270 0 gusting 1 6.7
2017-Sep-23 22:52 270 0 gusting 1 6.7
2017-Sep-23 22:47 248 0 gusting 1 6.7
2017-Sep-23 22:42 270 6.7
2017-Sep-23 22:37 270 6.7
2017-Sep-23 22:32 270 6.7
2017-Sep-23 22:27 270 0 gusting 1 6.7
2017-Sep-23 22:22 248 0 gusting 1 6.7
2017-Sep-23 22:17 248 0 gusting 1 6.7
2017-Sep-23 22:12 248 0 gusting 1 6.7
2017-Sep-23 22:07 270 1 gusting 1 6.7
2017-Sep-23 22:02 270 1 gusting 1 6.7
2017-Sep-23 21:57 248 0 gusting 0 6.7
2017-Sep-23 21:52 270 6.7
2017-Sep-23 21:47 270 6.7
2017-Sep-23 21:42 248 6.7
2017-Sep-23 21:37 248 0 gusting 1 6.7
2017-Sep-23 21:32 248 0 gusting 1 6.7
2017-Sep-23 21:27 248 0 gusting 1 6.7
2017-Sep-23 21:22 248 0 gusting 1 6.7
2017-Sep-23 21:17 270 0 gusting 1 6.7
2017-Sep-23 21:12 248 0 gusting 1 6.7
2017-Sep-23 21:07 248 0 gusting 1 6.7
2017-Sep-23 20:57 270 0 gusting 1 6.7
2017-Sep-23 20:52 248 6.7
2017-Sep-23 20:47 270 6.7
2017-Sep-23 20:42 270 6.7
2017-Sep-23 20:37 248 6.7
2017-Sep-23 20:32 248 7.2
2017-Sep-23 20:27 248 7.2
2017-Sep-23 20:22 315 7.2
2017-Sep-23 20:17 293 7.2
2017-Sep-23 20:12 293 7.2
2017-Sep-23 20:07 315 7.2
2017-Sep-23 20:02 315 7.2
2017-Sep-23 19:57 293 7.2
2017-Sep-23 19:52 270 7.8
2017-Sep-23 19:47 270 7.8
2017-Sep-23 19:42 293 7.8
2017-Sep-23 19:37 293 7.8
2017-Sep-23 19:32 293 7.8
2017-Sep-23 19:27 293 7.8
2017-Sep-23 19:22 293 7.8
2017-Sep-23 19:17 315 7.8
2017-Sep-23 19:12 270 7.8
2017-Sep-23 19:07 248 8.3
2017-Sep-23 19:02 293 8.3
2017-Sep-23 18:57 315 8.3
2017-Sep-23 18:52 315 8.3
2017-Sep-23 18:47 315 8.3
2017-Sep-23 18:42 293 8.3
2017-Sep-23 18:37 315 8.3
2017-Sep-23 18:32 293 8.9
2017-Sep-23 18:27 315 8.9
2017-Sep-23 18:22 270 8.9
2017-Sep-23 18:17 270 8.9
2017-Sep-23 18:12 293 8.9
2017-Sep-23 18:07 270 9.4
2017-Sep-23 18:02 270 9.4